[[{"header":{"parameterUnit":"m.s-1","parameterCategory":1,"la1":30.2991,"la2":30.254,"lo1":-89.0895,"lo2":-89.0444,"dy":0.0017,"dx":0.0017,"nx":28,"ny":28,"refTime":"2024-04-23T09:00:00:Z","depth":0,"parameterNumber":2,"parameterNumberName":"U-component_of_WINDS"},"data":[0,0,0,0,0,0,0,0,0,0,0,0,0,0,0,0,0,0,0,0,0,0,0,0,0,0,0,0,0,0,0,0,0,0,0,0,0,0,0,0,0,0,0,0,0,0,0,0,0,0,0,0,0,0,0,0,0,0,-0.11,-0.11,0,-0.1054,-0.1053,-0.1053,-0.1023,-0.1023,-0.1023,-0.1023,-0.0975,-0.0974,-0.0972,0,0,0,0,0,0,0,0,0,0,0,0,0,-0.1162,-0.1161,-0.11,-0.11,-0.1099,-0.1054,-0.1053,-0.1053,-0.1023,-0.1023,-0.1023,-0.1023,-0.0975,-0.0974,-0.0972,0,0,0,0,0,0,0,0,0,0,0,0,0,-0.1127,-0.116,-0.11,-0.1079,-0.1077,-0.1054,-0.1053,-0.1053,-0.1023,-0.1023,-0.1023,-0.1023,-0.0975,-0.0974,-0.0972,-0.0967,0,0,-0.0967,-0.0966,0,0,0,0,0,0,0,0,-0.1129,-0.1125,-0.1083,-0.108,-0.1078,-0.1044,-0.1057,-0.1024,-0.1023,-0.1044,-0.1023,-0.1022,-0.0998,-0.0994,-0.0986,-0.0965,-0.0963,-0.0967,-0.0966,-0.0965,-0.0965,0,0,0,0,0,0,0,-0.1132,-0.1127,-0.1082,-0.1082,-0.1079,-0.1071,-0.1066,-0.1051,-0.1023,-0.1042,-0.104,-0.1035,-0.0996,-0.0988,-0.0985,-0.0962,-0.0967,-0.0965,-0.0964,-0.0964,-0.0933,-0.0933,0,0,0,0,0,0,-0.1138,-0.1129,-0.1083,-0.108,-0.1103,-0.107,-0.1065,-0.1055,-0.1023,-0.1018,-0.1035,-0.1033,-0.0991,-0.0987,-0.0983,-0.0974,-0.0965,-0.0964,-0.0963,-0.0933,-0.0933,-0.0934,0,0,0,0,0,0,-0.1139,-0.1134,-0.1085,-0.1104,-0.1097,-0.107,-0.1059,-0.1054,-0.1046,-0.1018,-0.1012,-0.1031,-0.0991,-0.0985,-0.0971,-0.0972,-0.0963,-0.0961,-0.0933,-0.0933,-0.0933,-0.0958,0,0,0,0,0,0,-0.1141,-0.1134,-0.1133,-0.1104,-0.1096,-0.1074,-0.1059,-0.1054,-0.1043,-0.1041,-0.1013,-0.1008,-0.099,-0.0974,-0.0969,-0.097,-0.096,-0.0933,-0.0933,-0.0933,-0.0957,-0.0959,-0.0961,0,0,0,0,0,-0.1143,-0.1141,-0.1133,-0.1127,-0.1094,-0.1075,-0.107,-0.105,-0.1043,-0.1041,-0.1023,-0.1009,-0.0973,-0.0973,-0.0967,-0.0967,-0.0932,-0.0933,-0.0933,-0.0956,-0.0958,-0.0961,0,0,0,0,0,0,-0.117,-0.1137,-0.1127,-0.1116,-0.1098,-0.107,-0.1066,-0.1053,-0.1037,-0.1035,-0.101,-0.1004,-0.0992,-0.0978,-0.0978,-0.096,-0.0951,-0.0951,-0.097,-0.0972,-0.0974,-0.0978,-0.0959,0,0,0,0,0,-0.1175,-0.1163,-0.1134,-0.1127,-0.1119,-0.1094,-0.1085,-0.1071,-0.1051,-0.1044,-0.1024,-0.1006,-0.099,-0.098,-0.0965,-0.0955,-0.0948,-0.0952,-0.0954,-0.0956,-0.0955,-0.0949,-0.095,-0.0935,-0.0935,-0.0935,0,0,-0.1185,-0.1165,-0.1159,-0.1132,-0.1117,-0.1104,-0.1088,-0.1075,-0.1066,-0.1042,-0.1027,-0.1012,-0.099,-0.0977,-0.0971,-0.0965,-0.0958,-0.0956,-0.0958,-0.0957,-0.0949,-0.0951,-0.0952,-0.0935,-0.0935,-0.0935,0,0,-0.1195,-0.118,-0.1172,-0.1157,-0.1133,-0.1117,-0.1115,-0.1088,-0.1077,-0.1062,-0.1044,-0.1032,-0.1005,-0.099,-0.0979,-0.0983,-0.097,-0.0979,-0.0989,-0.0983,-0.0984,-0.0985,-0.0986,-0.0987,-0.0979,-0.0979,-0.0979,0,-0.121,-0.1191,-0.1169,-0.1158,-0.1146,-0.1124,-0.1115,-0.1102,-0.1075,-0.1067,-0.1061,-0.1028,-0.1011,-0.0995,-0.0996,-0.0987,-0.0984,-0.0982,-0.0986,-0.0986,-0.0987,-0.0988,-0.0988,-0.098,-0.098,-0.098,-0.098,0,-0.121,-0.1197,-0.1193,-0.1167,-0.1156,-0.1146,-0.1122,-0.1113,-0.1099,-0.1083,-0.1068,-0.1047,-0.1026,-0.1021,-0.1008,-0.1003,-0.1,-0.099,-0.098,-0.099,-0.099,-0.099,-0.0982,-0.0981,-0.0981,-0.0981,0,0,-0.1237,-0.1199,-0.1198,-0.1186,-0.1159,-0.1148,-0.1137,-0.1116,-0.1109,-0.1091,-0.108,-0.1058,-0.1049,-0.1036,-0.1021,-0.1016,-0.102,-0.1006,-0.1005,-0.1009,-0.1012,-0.1019,-0.102,-0.1011,-0.1011,-0.1011,-0.1014,0,-0.1243,-0.1222,-0.1202,-0.1188,-0.1176,-0.1154,-0.1144,-0.1126,-0.1111,-0.1097,-0.108,-0.1065,-0.1054,-0.1046,-0.1039,-0.1021,-0.102,-0.102,-0.1,-0.1,-0.1007,-0.102,-0.1028,-0.1032,-0.1014,-0.1014,-0.1014,0,-0.1248,-0.1231,-0.1216,-0.1189,-0.1183,-0.1175,-0.1154,-0.1142,-0.1121,-0.111,-0.1096,-0.108,-0.1066,-0.1058,-0.1039,-0.1039,-0.103,-0.1019,-0.1019,-0.1016,-0.1008,-0.1018,-0.1033,-0.1034,-0.1014,-0.1014,-0.1014,0,-0.1269,-0.1242,-0.1229,-0.122,-0.1188,-0.1183,-0.117,-0.1148,-0.1137,-0.1119,-0.1112,-0.1093,-0.1082,-0.1067,-0.1046,-0.1042,-0.1029,-0.1019,-0.1019,-0.102,-0.1018,-0.1018,-0.1031,-0.1012,-0.1012,-0.1012,-0.1012,0,-0.1278,-0.127,-0.1238,-0.123,-0.122,-0.1197,-0.1187,-0.1172,-0.1153,-0.1141,-0.1121,-0.1111,-0.1084,-0.107,-0.1053,-0.104,-0.1035,-0.1026,-0.1021,-0.1027,-0.1029,-0.1021,-0.102,-0.1012,-0.1012,-0.1012,-0.1012,0,-0.1299,-0.1278,-0.1263,-0.1234,-0.1227,-0.1221,-0.1196,-0.1187,-0.1171,-0.1156,-0.1152,-0.1125,-0.1108,-0.1086,-0.1061,-0.105,-0.1038,-0.1032,-0.1046,-0.1043,-0.1044,-0.1044,-0.1053,-0.1053,-0.1034,-0.1034,-0.1035,0,-0.1307,-0.13,-0.127,-0.1261,-0.1249,-0.1234,-0.1223,-0.12,-0.1189,-0.1164,-0.1158,-0.1139,-0.1123,-0.1096,-0.1075,-0.1056,-0.1048,-0.1053,-0.1045,-0.1052,-0.1048,-0.1049,-0.1048,-0.1055,-0.1055,-0.1055,-0.1055,0,-0.1322,-0.1311,-0.1296,-0.1277,-0.1264,-0.1248,-0.123,-0.1224,-0.1197,-0.1186,-0.1168,-0.1155,-0.113,-0.1111,-0.109,-0.1075,-0.1061,-0.1058,-0.1057,-0.1063,-0.1071,-0.1066,-0.105,-0.1058,-0.1057,-0.1057,-0.1057,-0.1057,-0.1336,-0.1328,-0.1307,-0.129,-0.1275,-0.1259,-0.1249,-0.1231,-0.1216,-0.1194,-0.1181,-0.1164,-0.1142,-0.1111,-0.1098,-0.1083,-0.1078,-0.1076,-0.1076,-0.1076,-0.1078,-0.1073,-0.1079,-0.1079,-0.1079,-0.1079,-0.1079,0,-0.135,-0.1334,-0.1319,-0.1296,-0.1283,-0.127,-0.1251,-0.124,-0.1225,-0.1206,-0.1191,-0.117,-0.1152,-0.1129,-0.1109,-0.1101,-0.1094,-0.1097,-0.1097,-0.1094,-0.1084,-0.1087,-0.1103,-0.1103,-0.1103,-0.1103,-0.1103,-0.1103,-0.1355,-0.1342,-0.1329,-0.1307,-0.1292,-0.1275,-0.1265,-0.125,-0.1235,-0.1212,-0.1197,-0.1182,-0.1162,-0.114,-0.1122,-0.1116,-0.1109,-0.1114,-0.1106,-0.1097,-0.1095,-0.1093,-0.1095,-0.1113,-0.1113,-0.1117,-0.1117,-0.1117]},{"header":{"parameterUnit":"m.s-1","parameterCategory":1,"la1":30.2991,"la2":30.254,"lo1":-89.0895,"lo2":-89.0444,"dy":0.0017,"dx":0.0017,"nx":28,"ny":28,"refTime":"2024-04-23T09:00:00:Z","depth":0,"parameterNumber":3,"parameterNumberName":"V-component_of_WINDS"},"data":[0,0,0,0,0,0,0,0,0,0,0,0,0,0,0,0,0,0,0,0,0,0,0,0,0,0,0,0,0,0,0,0,0,0,0,0,0,0,0,0,0,0,0,0,0,0,0,0,0,0,0,0,0,0,0,0,0,0,0.0517,0.0517,0,0.0506,0.0506,0.0505,0.0523,0.0524,0.0524,0.0525,0.0512,0.0511,0.051,0,0,0,0,0,0,0,0,0,0,0,0,0,0.0552,0.0551,0.0517,0.0517,0.0517,0.0506,0.0506,0.0505,0.0523,0.0524,0.0524,0.0525,0.0512,0.0511,0.051,0,0,0,0,0,0,0,0,0,0,0,0,0,0.0538,0.0551,0.0517,0.0524,0.0525,0.0506,0.0506,0.0505,0.0523,0.0524,0.0525,0.0525,0.0513,0.0511,0.051,0.0483,0,0,0.0506,0.0505,0,0,0,0,0,0,0,0,0.0539,0.0537,0.0523,0.0524,0.0524,0.0517,0.0513,0.0498,0.0523,0.0523,0.0525,0.0526,0.0513,0.0511,0.0507,0.0483,0.0482,0.0506,0.0505,0.0504,0.0504,0,0,0,0,0,0,0,0.054,0.0538,0.0512,0.0523,0.0523,0.0527,0.0526,0.051,0.0513,0.0523,0.0525,0.0523,0.0513,0.0509,0.0507,0.0482,0.0506,0.0505,0.0504,0.0503,0.0434,0.0433,0,0,0,0,0,0,0.054,0.0538,0.0513,0.0512,0.0534,0.0526,0.0525,0.0518,0.0513,0.0513,0.0522,0.0524,0.051,0.0509,0.0507,0.0475,0.0504,0.0503,0.0502,0.0435,0.0434,0.0433,0,0,0,0,0,0,0.0541,0.0538,0.0513,0.0526,0.0523,0.0524,0.0517,0.0517,0.0513,0.0513,0.0513,0.0517,0.0511,0.0509,0.0489,0.0474,0.0502,0.0501,0.0436,0.0435,0.0433,0.041,0,0,0,0,0,0,0.0542,0.0538,0.0528,0.0525,0.0522,0.0496,0.0516,0.0517,0.0511,0.0513,0.0508,0.0508,0.0512,0.0491,0.0488,0.0473,0.05,0.0438,0.0436,0.0434,0.0412,0.0408,0.0405,0,0,0,0,0,0.0543,0.0522,0.0528,0.0524,0.051,0.0495,0.0493,0.0498,0.0509,0.0499,0.0499,0.0508,0.0477,0.0489,0.0485,0.047,0.0439,0.0436,0.0434,0.0414,0.0409,0.0405,0,0,0,0,0,0,0.0523,0.0522,0.0528,0.0505,0.05,0.0498,0.0485,0.0493,0.0484,0.0486,0.0493,0.0491,0.047,0.0468,0.0482,0.0444,0.0459,0.0456,0.0446,0.0441,0.0437,0.0438,0.0499,0,0,0,0,0,0.0516,0.0504,0.0504,0.0484,0.0481,0.0483,0.0477,0.0482,0.0477,0.0474,0.0473,0.0467,0.0456,0.0448,0.0438,0.0412,0.0411,0.04,0.0396,0.0393,0.039,0.0376,0.0371,0.0425,0.0425,0.0425,0,0,0.0501,0.0499,0.0491,0.0479,0.0476,0.0464,0.0482,0.0468,0.0458,0.0472,0.0453,0.0452,0.0446,0.0423,0.0413,0.0421,0.0375,0.039,0.0388,0.0386,0.0373,0.0368,0.0363,0.0424,0.0424,0.0424,0,0,0.0467,0.0464,0.0447,0.0444,0.0438,0.044,0.0436,0.0433,0.0433,0.0414,0.0424,0.0413,0.0394,0.0389,0.0384,0.0348,0.0356,0.0345,0.0324,0.0311,0.0306,0.0303,0.0289,0.0285,0.0342,0.0342,0.0342,0,0.0449,0.0431,0.0437,0.0423,0.0417,0.043,0.0412,0.0408,0.0399,0.0395,0.0404,0.038,0.0377,0.0353,0.0344,0.034,0.0335,0.0345,0.0306,0.0303,0.0299,0.0287,0.0282,0.0341,0.0341,0.0341,0.0341,0,0.0408,0.0396,0.0383,0.0374,0.0367,0.0351,0.0355,0.0347,0.0352,0.0353,0.0334,0.033,0.032,0.0314,0.0319,0.0291,0.0296,0.0306,0.0322,0.0293,0.0281,0.0276,0.0339,0.0339,0.034,0.034,0,0,0.0361,0.0357,0.0352,0.0348,0.0343,0.0333,0.0318,0.0308,0.03,0.0294,0.0281,0.0264,0.0273,0.0268,0.0272,0.026,0.0231,0.0271,0.0271,0.0263,0.0199,0.0192,0.0186,0.0237,0.0236,0.0235,0.02,0,0.0327,0.03,0.0306,0.0279,0.0268,0.0279,0.0266,0.0261,0.0261,0.0251,0.0251,0.0239,0.0252,0.0249,0.0238,0.0237,0.0218,0.024,0.0224,0.0223,0.0224,0.018,0.0172,0.0138,0.0195,0.0195,0.0194,0,0.0284,0.0276,0.0248,0.0245,0.0241,0.0228,0.0219,0.0209,0.0204,0.0205,0.0199,0.0206,0.019,0.0206,0.0184,0.0198,0.0192,0.0191,0.019,0.0188,0.0206,0.0176,0.0128,0.0123,0.0187,0.0187,0.0188,0,0.0251,0.0234,0.0215,0.0212,0.0208,0.0199,0.0197,0.0192,0.0186,0.0178,0.0174,0.0164,0.0158,0.015,0.0154,0.0166,0.0131,0.0148,0.0131,0.013,0.0122,0.0122,0.0071,0.0119,0.0119,0.0119,0.0119,0,0.0212,0.0194,0.02,0.0189,0.0169,0.0176,0.0157,0.0156,0.0152,0.014,0.015,0.0138,0.0144,0.0133,0.0136,0.0116,0.0114,0.0114,0.0115,0.0113,0.0113,0.0108,0.011,0.0118,0.0118,0.0118,0.0119,0,0.0172,0.0175,0.0156,0.0154,0.0153,0.0139,0.0137,0.0126,0.0127,0.0112,0.0109,0.011,0.0098,0.0101,0.0087,0.0089,0.0064,0.0068,0.0066,0.0067,0.0049,0.0051,-0.0007,-0.0014,0.0039,0.0038,0.0038,0,0.0146,0.0133,0.013,0.0123,0.012,0.0109,0.0102,0.0108,0.0101,0.0094,0.0084,0.0072,0.0063,0.0042,0.0042,0.0031,0.0035,0.0015,0.0033,0.0031,0.0034,0.0034,0.0033,0.0011,0.0011,0.001,0.001,0,0.0101,0.0103,0.0094,0.0084,0.0076,0.0069,0.0063,0.0057,0.0062,0.0054,0.0041,0.0034,0.002,0.0008,-0.0002,-0.0004,0.0003,0.0004,-0.0,-0.0003,-0.0004,-0.0004,0.0056,0.0006,0.0006,0.0006,0.0007,0.0007,0.0067,0.0056,0.0052,0.004,0.0037,0.0031,0.002,0.002,0.001,-0.0001,0.0003,-0.0011,-0.0016,-0.0028,-0.0032,-0.0044,-0.0037,-0.0043,-0.0045,-0.0047,-0.0049,-0.0001,-0.0045,-0.0045,-0.0045,-0.0045,-0.0045,0,0.0021,0.0019,0.0009,0.0,-0.0009,0.0,-0.0006,-0.0014,-0.0027,-0.0032,-0.0041,-0.0056,-0.0067,-0.0068,-0.0079,-0.0088,-0.0085,-0.0091,-0.0091,-0.0092,-0.0055,-0.005,-0.0094,-0.0094,-0.0094,-0.0094,-0.0094,-0.0094,-0.0004,-0.0022,-0.0021,-0.0041,-0.0043,-0.0057,-0.0061,-0.0067,-0.0071,-0.0088,-0.0097,-0.0097,-0.0101,-0.0112,-0.0122,-0.0122,-0.0127,-0.0135,-0.0134,-0.0099,-0.0094,-0.009,-0.0085,-0.0136,-0.0136,-0.017,-0.017,-0.017]}]]